Dewpoint
7 9 9 10 11 11 11 12 12 12 12 11 12 11 9 9 6 4 5 4 4 3 4 1 5 14 12 12 16 10 11 13 14 12 12 11 12 17 22 25 27 29 30 30 30 31 32 33 34 36 37 39 40 41 43 43 44 43 42 44 46 46 47 48 48 50 51 51 52 54 55 55 55 56
5 7 9 10 11 12 13 12 13 13 13 13 13 13 13 12 9 8 6 5 5 3 4 5 3 5 11 12 12 12 11 13 11 12 13 13 13 20 23 23 24 28 29 28 28 29 31 32 32 34 35 37 39 39 40 43 44 44 42 43 44 45 45 45 46 48 49 50 51 53 54 55 53 51
2 2 2 3 4 6 7 8 9 10 10 10 11 11 12 14 13 11 9 7 7 4 3 4 4 5 6 9 8 9 9 12 13 14 15 15 19 22 22 22 24 26 27 27 27 27 28 30 31 32 33 35 37 39 39 39 41 42 42 41 41 43 44 44 44 46 48 47 48 50 52 54 54 55
-0 -0 1 2 3 5 6 9 9 9 10 10 10 10 11 11 12 11 9 8 7 7 7 7 7 7 5 4 5 6 12 15 16 16 17 17 21 21 20 23 22 23 24 24 25 27 28 29 30 30 31 33 35 37 38 38 38 39 41 41 41 42 42 42 44 45 44 45 46 48 49 51 51 53
-3 0 0 1 1 1 1 2 3 5 6 7 9 9 9 10 11 11 10 9 9 8 8 6 5 5 5 6 8 7 7 8 11 12 14 17 18 19 19 19 23 21 22 23 24 26 28 28 29 29 30 32 34 35 36 36 36 37 37 39 41 42 41 42 43 42 42 42 43 45 47 49 51 51
-1 -1 -1 -2 0 1 1 1 2 2 3 3 5 7 8 9 8 11 10 9 9 9 8 7 8 7 6 3 4 5 5 6 9 9 9 11 14 16 15 16 17 21 21 22 23 25 26 27 28 29 30 31 32 33 33 35 36 36 38 41 41 41 41 41 41 41 41 42 41 42 43 46 48 50
-1 -1 -1 -1 -1 -1 0 1 2 2 2 3 3 3 5 5 6 7 8 8 6 6 7 8 7 7 7 6 6 6 7 8 9 9 11 12 14 15 14 15 17 21 21 22 23 24 26 26 27 29 29 30 32 33 33 33 34 35 37 39 40 40 40 41 41 40 40 41 41 41 42 43 45 48
-1 -0 -0 -0 -0 0 0 0 1 2 2 3 3 3 3 5 5 7 9 9 7 6 7 8 7 8 6 6 8 9 10 10 11 12 13 14 14 14 15 14 14 17 20 21 23 24 25 27 28 29 30 31 31 32 32 33 34 35 37 39 41 41 41 41 40 40 40 40 40 41 41 41 42 44
-2 -1 -0 0 1 0 0 1 1 1 1 1 2 2 3 3 5 7 9 9 9 7 7 7 8 12 10 8 7 9 10 11 12 13 13 13 13 13 13 14 15 18 20 22 24 24 25 26 28 29 31 31 32 32 32 33 34 37 38 39 40 41 41 41 41 41 41 41 40 40 40 41 41 43
0 0 0 -0 1 1 1 2 2 3 1 2 2 2 2 3 4 5 6 7 8 8 8 9 9 12 12 14 11 10 11 12 12 12 12 13 13 14 14 15 16 17 17 18 20 23 24 25 26 28 29 30 31 31 32 33 34 36 37 38 40 40 40 41 41 41 41 41 41 41 41 41 41 43
1 1 1 1 1 1 1 2 4 6 6 5 4 4 3 3 3 4 4 6 7 7 7 7 10 10 10 10 8 8 8 8 9 9 9 10 12 13 14 16 18 18 19 22 24 24 24 26 25 25 27 28 29 30 31 32 33 35 36 37 37 39 40 41 41 41 40 40 40 40 41 40 40 41
1 1 1 1 1 2 2 2 2 3 4 7 7 7 5 5 4 4 5 5 6 6 6 6 6 7 7 7 8 9 9 10 10 11 11 10 10 12 13 15 17 19 21 21 22 25 26 27 27 29 30 30 30 31 32 32 33 34 34 34 35 37 39 40 40 40 40 40 40 40 40 40 40 41
2 2 2 2 2 3 5 6 6 5 5 3 4 6 6 5 5 4 4 4 4 4 5 6 6 5 6 6 7 7 7 7 6 8 9 12 13 13 14 16 18 19 19 21 22 22 24 24 24 25 26 26 29 30 31 32 33 34 34 34 35 36 38 39 39 40 40 40 40 40 40 40 40 40
4 3 3 4 5 6 6 7 8 11 12 11 7 4 4 6 6 6 6 6 6 6 6 6 5 4 4 4 5 5 6 7 9 10 11 12 13 15 17 18 20 21 21 21 21 22 24 24 24 25 25 26 27 27 28 29 30 32 33 34 35 36 37 38 39 39 39 39 39 39 39 40 40 40
7 6 6 5 5 7 8 7 10 12 13 14 14 14 12 10 6 5 4 5 6 6 5 5 4 3 3 4 5 5 6 7 9 11 13 15 18 18 16 15 18 22 22 23 22 23 24 26 24 24 25 26 26 27 28 31 31 32 33 34 35 36 37 38 39 39 39 39 39 39 39 39 39 39
8 8 8 7 6 6 6 6 7 10 13 14 14 15 15 15 16 14 8 5 4 3 3 4 4 3 3 3 4 5 6 7 9 12 14 16 15 14 16 18 18 22 24 23 23 23 24 25 25 24 25 25 26 27 29 31 32 33 33 34 34 35 36 37 37 38 38 38 38 39 38 38 39 39
10 10 9 9 8 6 8 8 7 7 7 12 14 14 14 15 16 17 18 16 8 6 5 4 3 4 4 4 5 6 7 9 10 12 13 15 16 17 17 19 21 22 26 24 24 23 24 24 24 24 25 26 26 27 31 31 32 33 33 34 35 35 36 36 37 37 37 37 38 38 38 38 38 38
12 10 10 9 9 9 8 8 8 7 7 8 8 9 11 12 13 16 17 17 18 14 9 8 6 6 6 6 6 9 12 12 12 14 15 18 19 19 19 19 19 23 25 24 23 23 23 24 24 24 25 26 27 28 30 31 32 33 34 34 35 35 35 36 36 36 36 36 36 37 37 38 38 38
14 12 11 11 11 11 10 9 9 8 8 8 8 8 7 8 9 10 11 13 15 16 16 13 11 11 11 9 9 11 14 15 16 16 17 17 18 19 20 20 21 21 23 25 25 19 22 23 24 24 25 25 27 28 30 32 33 33 34 34 34 34 35 35 35 35 35 35 35 36 36 37 38 38
16 14 12 12 12 11 11 12 17 15 10 9 9 8 8 8 8 8 13 15 16 15 14 16 17 17 16 18 15 15 15 16 17 18 19 19 19 19 19 18 19 20 22 24 24 22 22 23 24 24 25 25 26 27 27 31 32 34 34 34 33 33 33 34 34 33 34 34 34 35 36 36 37 37
18 16 14 14 14 13 13 15 18 20 19 12 10 10 10 10 10 10 10 17 20 20 20 20 20 21 22 23 23 24 24 22 20 19 18 19 20 19 18 18 19 20 22 25 25 24 23 25 26 26 21 24 24 26 26 27 31 33 33 32 32 32 33 33 33 34 34 34 34 34 35 35 36 36
18 18 19 18 16 15 15 18 20 21 20 17 13 11 11 11 11 12 13 13 15 20 21 22 22 22 22 22 23 24 25 25 25 23 19 19 20 20 19 18 19 19 21 23 27 25 24 25 26 26 25 24 22 25 25 26 28 31 31 32 32 32 32 33 33 33 34 34 34 34 34 35 35 35
19 18 20 20 20 18 18 21 21 22 21 19 18 15 13 13 13 13 14 15 15 15 16 17 18 19 21 21 22 22 24 24 24 25 24 24 22 20 20 20 20 20 21 24 27 24 23 25 26 27 25 23 23 20 22 24 23 24 26 28 29 31 31 32 32 32 33 33 33 34 34 35 35 34
16 16 13 16 16 17 18 20 22 22 23 20 19 19 18 16 15 16 17 17 16 16 17 17 18 18 19 19 20 20 21 22 23 23 24 25 25 23 22 22 22 21 20 21 27 25 21 24 24 27 26 22 18 16 16 18 19 22 25 26 26 30 31 31 31 31 32 32 33 33 33 34 34 34
16 15 15 13 18 18 19 19 20 21 21 21 21 20 19 19 18 19 16 17 19 18 18 18 19 19 19 20 20 21 21 21 20 20 20 24 25 25 24 23 23 23 23 23 28 26 23 22 22 21 24 25 24 24 20 20 19 21 25 26 26 28 28 29 30 29 30 31 32 32 33 34 34 34
17 16 15 16 17 17 18 18 20 20 20 21 19 20 23 24 24 21 20 19 18 18 18 19 19 19 19 19 19 19 19 19 18 18 18 19 23 26 26 26 24 23 23 25 30 26 25 21 24 22 22 23 23 24 24 21 18 21 22 24 25 25 28 29 30 30 30 30 31 31 31 33 34 34
17 16 15 17 18 16 18 20 20 21 22 22 22 23 23 22 21 22 21 22 21 20 20 19 19 20 20 20 19 19 18 18 17 17 18 17 19 23 26 27 27 26 26 23 27 27 26 24 23 24 23 23 22 22 21 21 21 15 15 17 18 21 25 27 28 29 30 31 31 32 32 32 33 33
17 15 14 17 20 20 19 19 20 20 20 18 20 21 21 21 22 22 22 21 21 21 21 21 21 20 21 21 21 20 19 19 18 18 17 16 15 18 21 23 25 27 27 26 24 27 26 25 24 24 24 22 22 22 21 22 19 15 17 17 16 18 20 24 27 28 29 30 31 31 31 31 32 33
13 18 19 18 18 18 18 18 18 16 15 16 18 18 19 19 19 20 20 20 21 20 20 20 21 21 22 22 21 21 20 20 18 14 14 13 14 15 16 19 22 25 25 24 22 24 26 26 25 25 23 23 23 23 24 23 24 22 19 21 21 16 19 23 25 26 28 29 30 31 31 31 32 33
18 17 17 17 17 16 14 12 9 10 9 14 15 15 16 17 17 18 18 18 18 18 18 18 19 19 20 21 22 22 21 19 18 16 16 15 17 18 19 20 21 23 23 23 22 21 23 25 25 24 23 22 24 24 24 24 23 23 19 19 21 21 20 21 23 25 27 28 30 31 31 31 32 33
12 12 14 12 13 12 11 10 11 10 9 8 6 8 11 14 16 17 17 17 17 18 19 20 21 20 20 21 21 22 22 21 20 19 20 19 18 19 21 21 21 21 22 20 19 18 19 22 24 23 23 23 23 24 24 22 23 23 21 17 17 19 22 23 24 24 25 26 26 25 25 26 27 29
12 11 12 6 2 1 0 -1 -3 -2 0 5 8 9 10 12 14 15 16 17 17 17 17 18 18 20 22 22 21 21 21 21 22 21 21 21 20 21 21 20 19 21 21 20 18 15 15 18 22 23 24 24 23 20 20 22 22 22 21 15 16 19 21 20 22 23 24 24 23 22 21 21 21 23
10 6 -0 -1 -2 -2 0 -1 -3 -3 -1 3 7 8 10 11 12 12 12 13 13 13 15 15 16 18 20 21 21 22 22 22 22 22 22 22 22 22 22 20 20 20 20 19 19 18 14 14 16 21 23 21 20 19 20 20 19 18 19 17 17 20 19 19 19 19 22 22 21 21 21 21 19 20
7 3 -1 -5 -3 -1 -3 -3 -2 -2 -0 3 6 7 9 9 10 11 11 11 11 12 13 15 15 16 17 19 21 21 21 21 22 22 23 21 22 22 22 21 20 21 21 21 20 19 16 16 17 17 17 16 16 18 21 22 22 19 19 18 19 18 17 16 17 18 19 20 21 19 19 19 19 18
6 3 0 -2 -1 -0 -2 -2 -3 -1 1 3 3 4 5 7 8 8 8 8 10 10 11 12 14 15 17 17 19 20 20 21 22 22 22 22 22 22 22 21 21 21 21 21 20 19 18 18 19 18 18 18 18 17 20 16 19 17 15 14 13 18 16 14 14 17 18 17 18 18 18 17 17 17
3 2 -1 -3 -3 -2 -3 -3 -2 -1 0 1 0 1 2 3 5 5 5 7 7 8 9 11 13 14 16 17 18 19 20 21 20 21 21 22 22 22 22 22 22 22 22 21 21 19 19 19 20 19 18 17 17 16 14 18 17 14 17 13 9 10 12 13 12 10 11 13 14 16 15 14 14 15
1 -2 -3 -4 -3 -3 -4 -5 -5 -3 -3 -3 -3 -2 -1 0 1 3 4 5 6 7 9 10 11 13 15 18 19 20 21 20 19 20 20 21 21 22 22 22 22 22 21 21 20 19 19 19 20 20 19 18 17 16 16 11 15 19 16 17 11 10 15 13 10 9 5 6 11 11 13 13 12 14
-1 -3 -4 -3 -4 -5 -5 -6 -7 -8 -8 -8 -6 -5 -5 -4 -2 1 3 4 4 5 6 7 9 11 13 16 20 20 20 21 21 21 20 21 21 21 22 21 21 21 21 21 20 20 19 20 20 20 20 18 17 17 15 10 10 13 19 17 15 13 12 14 11 10 6 5 6 6 10 13 11 12
-4 -5 -6 -6 -7 -11 -11 -10 -9 -11 -12 -12 -10 -10 -8 -6 -3 -1 1 1 2 3 4 5 7 9 11 13 16 20 20 20 20 20 21 21 21 21 22 21 21 21 21 20 20 19 19 20 20 20 20 19 18 17 17 14 9 10 15 19 17 13 13 15 11 5 5 5 6 7 7 8 13 16
-6 -7 -9 -8 -9 -12 -13 -14 -15 -16 -15 -14 -14 -15 -10 -6 -4 -3 -2 -0 -0 1 2 3 5 6 7 10 12 16 21 21 20 20 21 21 21 21 21 21 21 19 19 18 17 18 19 19 20 21 21 19 16 13 15 13 11 9 13 18 20 16 13 13 11 10 5 3 4 8 7 7 8 7
-7 -10 -12 -12 -11 -13 -14 -15 -18 -17 -17 -17 -16 -10 -10 -8 -6 -5 -5 -4 -3 -3 -1 0 1 3 5 7 9 12 17 21 21 21 21 21 20 20 21 19 19 18 18 16 17 17 17 18 12 13 15 16 16 18 17 14 12 10 11 13 19 18 16 15 13 11 8 3 5 6 6 5 4 1
-9 -12 -15 -16 -14 -15 -18 -19 -19 -18 -18 -18 -18 -15 -13 -9 -8 -2 -6 -6 -7 -5 -4 -2 -2 0 2 5 7 10 14 20 21 21 20 21 20 19 18 18 18 17 17 16 16 16 12 12 13 15 16 17 18 17 16 15 12 10 9 9 12 18 20 18 17 13 9 7 6 2 2 4 1 3
-11 -13 -13 -13 -13 -15 -16 -16 -18 -19 -19 -18 -18 -17 -16 -14 -13 -12 -12 -11 -10 -8 -7 -6 -4 -3 -1 2 5 9 11 14 18 19 19 19 18 18 18 18 17 17 16 13 11 11 11 11 14 15 16 17 15 16 17 15 13 11 9 10 9 12 16 20 20 19 18 17 14 8 4 4 3 6
-12 -13 -14 -16 -16 -18 -18 -18 -18 -17 -18 -19 -16 -16 -14 -14 -14 -13 -13 -14 -13 -12 -10 -8 -7 -6 -3 -0 3 7 8 10 12 16 18 18 18 18 16 15 13 12 11 10 10 9 10 10 9 12 15 10 8 14 14 12 11 11 11 8 6 11 11 11 13 15 15 17 18 19 19 20 19 14
-14 -15 -15 -17 -17 -17 -17 -17 -17 -18 -19 -19 -19 -17 -14 -15 -13 -13 -13 -14 -14 -14 -12 -10 -9 -7 -6 -3 1 4 6 9 10 11 13 14 15 14 13 12 11 10 9 10 9 7 9 8 8 8 6 4 5 9 10 10 10 7 7 8 7 4 2 -1 8 9 7 6 10 16 17 18 19 18